Location: Newark
(52.4787°S, 179.0532°W)
Time: 01:42:08
(UTC+00:00)

S-56A Canister/Altair - All Passes

Search period start: 21 November 2019 00:00
Search period end: 01 December 2019 00:00
Orbit: 634 x 2498 km, 38.9° (Epoch: 19 November)

Date Brightness Start Highest point End Pass type
(mag) Time Alt. Az. Time Alt. Az. Time Alt. Az.
21 Nov - 00:05:14 10° WNW 00:09:44 12° NW 00:14:22 10° NNW daylight
21 Nov - 15:17:30 10° N 15:22:07 17° NE 15:27:45 10° ENE daylight
21 Nov - 17:17:05 10° NW 17:24:41 35° NNE 17:35:15 10° ENE daylight
21 Nov - 19:19:24 10° WNW 19:28:37 41° N 19:41:03 10° ENE daylight
21 Nov - 21:23:16 10° W 21:32:59 30° NNW 21:44:45 10° NNE daylight
21 Nov - 23:30:54 10° WNW 23:36:42 14° NW 23:42:51 10° NNW daylight
22 Nov - 14:46:14 10° NNE 14:49:33 13° NE 14:53:24 10° ENE visible
22 Nov - 16:44:51 10° NW 16:51:50 32° NNE 17:01:32 10° ENE daylight
22 Nov - 18:46:52 10° WNW 18:55:32 40° N 19:07:29 10° ENE daylight
22 Nov - 20:50:25 10° WNW 20:59:50 31° NNW 21:11:34 10° NNE daylight
22 Nov - 22:57:05 10° WNW 23:03:40 15° NW 23:10:49 10° NNW daylight
23 Nov - 14:16:39 10° NE 14:17:03 10° NE 14:17:28 10° NE visible
23 Nov - 16:12:42 10° NNW 16:19:04 29° NNE 16:27:49 10° ENE daylight
23 Nov - 18:14:24 10° WNW 18:22:31 39° N 18:33:53 10° ENE daylight
23 Nov - 20:17:40 10° WNW 20:26:42 32° NNW 20:38:17 10° NE daylight
23 Nov - 22:23:35 10° WNW 22:30:36 17° NW 22:38:28 10° N daylight
24 Nov - 15:40:38 10° NNW 15:46:24 25° NNE 15:54:07 10° ENE daylight
24 Nov - 17:42:00 10° WNW 17:49:34 37° N 18:00:17 10° ENE daylight
24 Nov - 19:45:00 10° WNW 19:53:37 33° NNW 20:04:57 10° NE daylight
24 Nov - 21:50:18 10° WNW 21:57:33 18° NW 22:05:53 10° N daylight
25 Nov - 15:08:40 10° NNW 15:13:46 22° NNE 15:20:25 10° ENE daylight
25 Nov - 17:09:39 10° NW 17:16:42 35° N 17:26:40 10° ENE daylight
25 Nov - 19:12:24 10° WNW 19:20:34 33° NNW 19:31:33 10° NE daylight
25 Nov - 21:17:13 10° WNW 21:24:31 20° NNW 21:33:09 10° N daylight
26 Nov - 14:36:50 10° N 14:41:12 19° NNE 14:46:41 10° ENE visible
26 Nov - 16:37:23 10° NW 16:43:53 33° N 16:53:05 10° ENE daylight
26 Nov - 18:39:53 10° WNW 18:47:35 33° N 18:58:07 10° NE daylight
26 Nov - 20:44:15 10° WNW 20:51:29 21° NNW 21:00:15 10° N daylight
27 Nov - 14:05:11 10° N 14:08:41 15° NE 14:12:54 10° ENE visible
27 Nov - 16:05:09 10° NW 16:11:09 31° NNE 16:19:32 10° ENE daylight
27 Nov - 18:07:26 10° WNW 18:14:39 33° N 18:24:39 10° NE daylight
27 Nov - 20:11:25 10° WNW 20:18:30 21° NNW 20:27:15 10° NNE daylight
28 Nov - 13:33:51 10° NNE 13:36:12 12° NE 13:38:50 10° ENE visible
28 Nov - 15:32:59 10° NW 15:38:28 28° NNE 15:46:00 10° ENE daylight
28 Nov - 17:35:01 10° WNW 17:41:47 32° N 17:51:12 10° NE daylight
28 Nov - 19:38:42 10° WNW 19:45:33 22° NNW 19:54:11 10° NNE daylight
29 Nov - 15:00:52 10° NW 15:05:51 25° NNE 15:12:31 10° ENE daylight
29 Nov - 17:02:40 10° WNW 17:08:58 31° N 17:17:45 10° NE daylight
29 Nov - 19:06:04 10° WNW 19:12:37 23° NNW 19:21:03 10° NNE daylight
30 Nov - 14:28:49 10° NNW 14:33:17 22° NNE 14:39:04 10° ENE visible
30 Nov - 16:30:22 10° WNW 16:36:13 30° N 16:44:20 10° NE daylight
30 Nov - 18:33:30 10° WNW 18:39:44 23° NNW 18:47:51 10° NNE daylight
